Preview of NWS' New Version of Forecast
This preview is not operational and should not be used for support decisions.

Regional Weather Roundup (RWR)

Issued by National Weather Service (NWS)

                            
000
ASUS44 KMEG 251010
RWRTN 
TENNESSEE HOURLY STATE WEATHER ROUNDUP
NATIONAL WEATHER SERVICE MEMPHIS TN
500 AM CDT SAT MAY 25 2019

TNZ002-004-019-021-049-052-054-088>092-251100-
WEST TENNESSEE
  
CITY           SKY/WX    TMP DP  RH WIND       PRES   REMARKS
MEMPHIS INTL   FAIR      71  66  84 S8        30.09R                  
NWS MEMPHIS      N/A     69 N/A N/A MISG        N/A                   
JACKSON        FAIR      68  66  93 S6        30.09S                  
DYERSBURG      FAIR      71  67  87 S3        30.09R                  
SOMERVILLE     CLEAR     68  66  94 CALM      30.09R                  
COVINGTON      CLEAR     70  68  94 S5        30.08R                  
UNION CITY     CLEAR     70  68  94 S3        30.05S                  
BOLIVAR        CLEAR     66  64  94 CALM      30.09R                  
PARIS          PTCLDY    70  68  94 SW5       30.07S                  
HUNTINGDON     PTCLDY    68  66  94 CALM      30.08R                  
LEXINGTON      FOG       66  66 100 CALM      30.09S VSB 3/4          
SELMER         CLEAR     68  66  94 CALM      30.09S                  
SAVANNAH       MOCLDY    68  66  94 CALM      30.10S                  
$$

TNZ008-025-027-028-033-062-065-066-251100-
NORTH MIDDLE TENNESSEE
  
CITY           SKY/WX    TMP DP  RH WIND       PRES   REMARKS
NASHVILLE      FAIR      70  66  87 S5        30.11S                  
DICKSON        PTSUNNY   72  68  88 SW8       30.10S                  
CLARKSVILLE    FAIR      70  66  87 S5        30.08S                  
LEBANON        SUNNY     70  68  94 CALM      30.09S                  
SMYRNA         FAIR      70  68  93 S3        30.13R                  
MURFREESBORO   MOSUNNY   72  68  88 S3        30.10F                  
COOKEVILLE     CLEAR     64  63  94 CALM      30.14S FOG              
LIVINGSTON     SUNNY     72  66  83 SW3       30.14S                  
CROSSVILLE     FAIR      66  63  90 SW3       30.20S                  
ROCKWOOD       SUNNY     72  64  78 W6        30.17S                  
$$

TNZ061-075-076-078-094-096-097-251100-
SOUTH MIDDLE TENNESSEE
  
CITY           SKY/WX    TMP DP  RH WIND       PRES   REMARKS
LAWRENCEBURG   PTSUNNY   66  66 100 CALM      30.14R FOG              
LEWISBURG      MOSUNNY   64  64 100 CALM      30.12S                  
FAYETTEVILLE   CLEAR     68  68 100 SE3       30.15R                  
TULLAHOMA      PTCLDY    64  63  94 CALM      30.15R                  
WINCHESTER     PTCLDY    66  64  94 CALM      30.16R                  
MCMINNVILLE    FOG       64  64 100 CALM      30.15R VSB 1/2          
COLUMBIA       PTCLDY    68  68 100 CALM      30.10F FOG              
SHELBYVILLE    PTCLDY    66  66 100 SE3       30.13S                  
$$

TNZ017-018-042-046-047-251100-
NORTHEAST TENNESSEE
  
CITY           SKY/WX    TMP DP  RH WIND       PRES   REMARKS
TRI CITIES     FAIR      60  58  92 CALM      30.19R                  
ELIZABETHTON   FAIR      63  59  88 E5        30.20R                  
GREENEVILLE    PTSUNNY   66  63  88 CALM      30.18R                  
$$

TNZ012-013-036-069-073-074-251100-
CENTRAL EAST TENNESSEE
  
CITY           SKY/WX    TMP DP  RH WIND       PRES   REMARKS
KNOXVILLE      FAIR      70  67  90 S6        30.15R                  
OAK RIDGE      FAIR      70  66  87 CALM      30.16R                  
GATLINBURG     CLOUDY    66  64  94 CALM      30.16R                  
MORRISTOWN     CLEAR     68  66  94 CALM      30.16R                  
JACKSBORO      CLEAR     64  64 100 CALM      30.19R FOG              
$$

TNZ083-085-099-251100-
SOUTHEAST TENNESSEE
  
CITY           SKY/WX    TMP DP  RH WIND       PRES   REMARKS
CHATTANOOGA    FAIR      72  70  93 CALM      30.15R                  
DAYTON         FOG       68  68 100 CALM      30.14R VSB 1/2          
$$

SKY/WX REPORTED AS FAIR MEANS FEW OR NO CLOUDS BELOW
12 THOUSAND FEET.